Precipitable_Water
1.98 2.08 2.06 1.74 1.19 1.14 0.96 0.90 1.05 0.98 1.02 1.25 1.34 1.21 1.10 1.19 1.16 1.14 1.95 2.00 1.99 1.98 2.03 2.09 2.13 2.17 2.17 2.14 2.16 2.14 2.11 2.03 2.00 1.99 2.02 1.99 1.96 1.94 1.89 1.80 1.70 1.68 1.64 1.71 1.73 1.71 1.77 1.69 1.67
2.04 1.99 1.83 1.38 1.05 0.90 0.96 1.07 0.97 1.02 1.16 1.35 1.28 1.19 1.07 1.03 1.39 1.54 1.71 1.98 2.02 2.02 2.00 2.02 2.06 2.15 2.14 2.15 2.18 2.21 2.18 2.15 2.18 2.20 2.20 2.09 2.07 2.07 2.02 1.92 1.88 1.76 1.74 1.75 1.75 1.77 1.78 1.72 1.72
1.98 1.96 1.40 1.16 1.02 0.96 0.99 1.17 1.11 1.16 1.21 1.23 1.22 1.27 1.13 1.09 1.34 1.51 1.84 1.95 2.03 1.99 1.99 2.16 2.08 2.13 2.20 2.14 2.13 2.23 2.24 2.17 2.19 2.21 2.23 2.19 2.12 2.11 2.12 2.03 2.00 1.82 1.76 1.70 1.67 1.70 1.72 1.74 1.77
1.73 1.60 1.36 1.00 0.91 1.06 1.15 1.20 1.22 1.16 1.19 1.27 1.24 1.09 1.29 1.46 1.41 1.64 1.80 1.92 2.00 1.97 2.00 2.06 2.12 2.15 2.06 2.16 2.21 2.19 2.24 2.20 2.19 2.21 2.16 2.17 2.11 2.18 2.20 2.15 2.06 1.94 1.77 1.73 1.75 1.80 1.80 1.86 1.84
1.64 1.31 0.95 0.89 0.95 1.10 1.24 1.29 1.31 1.15 1.14 1.16 1.20 1.04 1.10 1.37 1.58 1.70 1.73 1.85 1.91 1.94 2.03 2.09 2.16 2.05 2.20 2.15 2.09 2.17 2.15 1.99 2.11 2.15 2.10 2.12 2.15 2.13 2.13 2.11 1.99 1.89 1.78 1.73 1.72 1.80 1.86 1.88 1.89
1.19 1.19 0.81 0.76 0.89 1.09 1.21 1.30 1.29 1.22 1.25 1.22 1.20 1.08 1.17 1.53 1.56 1.70 1.76 1.73 1.95 1.94 2.01 2.12 2.11 2.06 2.14 2.20 2.07 2.10 2.10 2.07 2.17 2.17 2.15 2.16 2.23 2.20 2.17 2.13 1.97 1.79 1.71 1.69 1.72 1.78 1.83 1.90 2.06
1.02 0.89 0.73 0.72 0.75 0.92 1.11 1.33 1.21 1.19 1.23 1.26 1.38 1.13 1.33 1.46 1.64 1.71 1.75 1.78 1.83 1.97 2.07 2.17 2.17 2.26 2.34 2.12 2.13 2.09 2.13 2.17 2.20 2.27 2.22 2.20 2.26 2.20 2.22 2.08 1.83 1.69 1.62 1.66 1.75 1.77 1.96 2.10 2.09
1.11 1.01 0.78 0.79 0.77 0.79 1.04 1.13 1.21 1.22 1.25 1.50 1.50 1.22 1.28 1.55 1.71 1.69 1.71 1.74 1.83 2.02 2.02 2.14 2.27 2.31 2.31 2.19 2.14 2.17 2.21 2.19 2.25 2.18 2.23 2.21 2.20 2.21 2.24 1.98 1.67 1.60 1.59 1.66 1.82 1.94 2.10 2.07 2.03
1.22 0.88 0.73 0.77 0.83 0.89 1.06 1.01 1.21 1.32 1.30 1.41 1.49 1.46 1.61 1.76 1.73 1.59 1.48 1.60 1.75 1.87 1.91 1.95 2.15 2.28 2.30 2.24 2.20 2.20 2.20 2.23 2.25 2.24 2.24 2.21 2.20 2.21 2.04 1.89 1.65 1.59 1.65 1.79 1.97 2.07 2.04 2.07 1.92
0.94 0.78 0.74 0.91 0.98 0.97 1.06 1.06 1.10 1.15 1.21 1.28 1.39 1.57 1.70 1.75 1.59 1.47 1.35 1.32 1.51 1.71 1.80 1.88 2.07 2.27 2.31 2.17 2.17 2.23 2.21 2.30 2.24 2.24 2.22 2.22 2.19 2.23 2.11 1.84 1.43 1.48 1.68 1.89 1.97 2.06 2.15 2.06 1.99
0.88 0.69 0.81 0.86 0.95 1.04 1.03 1.07 1.12 1.11 1.07 1.25 1.32 1.46 1.60 1.62 1.55 1.49 1.43 1.38 1.43 1.65 1.72 1.90 2.02 2.20 2.16 2.19 2.22 2.25 2.20 2.22 2.23 2.18 2.20 2.18 2.21 2.15 1.95 1.69 1.43 1.60 1.84 1.97 2.15 2.22 2.19 2.12 1.96
0.76 0.84 0.81 0.87 0.95 1.00 1.00 1.10 1.05 1.09 1.17 1.36 1.43 1.54 1.59 1.53 1.55 1.54 1.44 1.50 1.53 1.62 1.71 1.83 2.00 2.04 2.07 2.08 2.11 2.15 2.18 2.18 2.18 2.23 2.22 2.18 2.15 2.09 1.97 1.54 1.42 1.68 1.88 2.01 2.01 2.05 2.01 1.92 1.94
0.78 0.74 0.78 0.83 0.88 0.99 1.05 1.00 1.05 1.09 1.25 1.38 1.48 1.52 1.48 1.50 1.52 1.57 1.53 1.55 1.58 1.65 1.77 1.80 1.95 2.01 2.05 2.05 2.09 2.10 2.14 2.20 2.19 2.21 2.25 2.23 2.15 1.97 1.66 1.38 1.51 1.64 1.95 2.00 1.98 2.04 2.00 1.95 1.93
0.75 0.75 0.78 0.81 0.85 0.93 0.88 0.95 1.06 1.13 1.28 1.31 1.41 1.41 1.41 1.45 1.44 1.48 1.50 1.52 1.59 1.69 1.77 1.81 1.88 1.96 1.94 1.89 2.02 2.12 2.15 2.12 2.21 2.22 2.25 2.22 2.15 1.84 1.45 1.44 1.54 1.73 2.00 2.03 2.03 1.99 1.95 1.86 1.82
0.76 0.69 0.70 0.71 0.78 0.81 0.92 0.87 0.90 1.17 1.28 1.25 1.32 1.40 1.40 1.40 1.40 1.43 1.50 1.53 1.61 1.65 1.73 1.72 1.80 1.86 1.81 1.86 1.99 2.19 2.11 2.10 2.11 2.15 2.23 2.25 2.07 1.79 1.55 1.49 1.67 1.84 1.98 1.99 2.06 1.93 1.94 1.81 1.88
0.69 0.73 0.56 0.61 0.71 0.82 0.84 0.67 0.94 1.15 1.19 1.21 1.29 1.36 1.36 1.36 1.34 1.40 1.48 1.52 1.60 1.64 1.63 1.71 1.73 1.76 1.83 1.93 2.00 2.20 2.18 2.11 2.10 2.18 2.24 2.21 2.03 1.80 1.52 1.62 1.73 1.89 1.95 1.99 1.88 1.87 1.79 1.84 1.89
0.66 0.53 0.52 0.53 0.63 0.66 0.78 0.68 0.96 1.13 1.17 1.19 1.31 1.38 1.40 1.36 1.34 1.41 1.47 1.53 1.62 1.67 1.70 1.74 1.83 1.91 1.93 1.92 2.03 2.13 2.14 2.09 2.09 2.14 2.15 2.21 2.07 1.72 1.57 1.63 1.77 1.84 1.91 1.92 1.77 1.73 1.80 1.81 1.80
0.52 0.51 0.50 0.49 0.53 0.55 0.61 0.68 0.83 1.07 1.08 1.15 1.30 1.36 1.43 1.35 1.34 1.41 1.46 1.52 1.58 1.64 1.73 1.82 1.86 1.96 2.01 2.03 2.03 2.07 2.06 2.12 2.11 2.17 2.15 2.23 1.98 1.65 1.62 1.66 1.74 1.74 1.81 1.85 1.79 1.72 1.80 1.84 1.72
0.56 0.50 0.45 0.51 0.54 0.61 0.65 0.71 0.78 0.95 1.04 1.08 1.25 1.31 1.37 1.41 1.51 1.48 1.46 1.48 1.49 1.55 1.64 1.74 1.78 1.98 2.02 1.97 1.84 1.88 1.88 2.01 2.06 2.13 2.21 2.05 1.87 1.64 1.64 1.71 1.74 1.71 1.79 1.85 1.86 1.74 1.72 1.81 1.78
0.51 0.42 0.42 0.47 0.52 0.62 0.64 0.65 0.75 0.91 0.99 1.09 1.20 1.26 1.33 1.42 1.46 1.48 1.44 1.41 1.43 1.49 1.61 1.74 1.80 1.89 1.95 1.93 1.90 1.88 1.93 1.96 2.02 2.06 1.95 1.88 1.83 1.71 1.68 1.78 1.70 1.76 1.76 1.85 1.86 1.70 1.60 1.75 1.79
0.46 0.40 0.35 0.44 0.52 0.70 0.61 0.59 0.66 0.86 0.96 1.05 1.19 1.25 1.30 1.32 1.36 1.42 1.42 1.35 1.39 1.45 1.56 1.68 1.82 1.87 1.88 1.86 1.89 1.90 1.93 1.92 1.92 1.93 1.78 1.81 1.80 1.67 1.72 1.79 1.80 1.76 1.76 1.78 1.86 1.81 1.61 1.58 1.75
0.40 0.45 0.44 0.47 0.50 0.45 0.59 0.47 0.56 0.72 0.82 0.89 1.02 1.11 1.22 1.30 1.36 1.38 1.31 1.31 1.37 1.45 1.57 1.63 1.77 1.89 1.90 1.90 1.84 1.83 1.75 1.68 1.81 1.80 1.90 1.79 1.80 1.76 1.69 1.75 1.77 1.72 1.65 1.60 1.86 1.88 1.71 1.55 1.51
0.44 0.49 0.49 0.50 0.48 0.50 0.45 0.47 0.53 0.68 0.68 0.81 0.90 0.99 1.11 1.27 1.31 1.22 1.30 1.39 1.49 1.59 1.63 1.62 1.66 1.79 1.88 1.90 1.87 1.80 1.75 1.71 1.79 1.79 1.85 1.81 1.85 1.72 1.63 1.71 1.72 1.70 1.61 1.65 1.81 1.81 1.76 1.69 1.59
0.48 0.45 0.45 0.45 0.43 0.40 0.38 0.46 0.48 0.59 0.69 0.80 0.86 0.96 1.02 1.12 1.22 1.26 1.36 1.43 1.51 1.66 1.71 1.70 1.65 1.66 1.78 1.84 1.86 1.80 1.75 1.66 1.69 1.72 1.78 1.83 1.81 1.67 1.55 1.58 1.58 1.64 1.65 1.71 1.77 1.90 1.88 1.73 1.65
0.44 0.36 0.32 0.31 0.32 0.33 0.39 0.45 0.47 0.67 0.75 0.82 0.86 0.89 1.01 1.09 1.14 1.20 1.29 1.39 1.50 1.55 1.63 1.74 1.67 1.55 1.62 1.72 1.79 1.77 1.79 1.76 1.80 1.78 1.73 1.73 1.70 1.65 1.48 1.49 1.56 1.51 1.56 1.67 1.88 1.87 1.84 1.73 1.71
0.40 0.38 0.34 0.29 0.30 0.32 0.37 0.37 0.48 0.73 0.85 0.85 0.91 0.94 0.98 1.08 1.12 1.15 1.26 1.39 1.47 1.54 1.62 1.73 1.69 1.60 1.49 1.60 1.66 1.72 1.79 1.80 1.82 1.84 1.81 1.77 1.78 1.67 1.55 1.51 1.52 1.47 1.52 1.64 1.88 1.76 1.78 1.72 1.65
0.40 0.36 0.40 0.34 0.32 0.30 0.34 0.43 0.54 0.71 0.77 0.85 0.86 0.90 0.95 0.99 1.10 1.14 1.21 1.29 1.37 1.46 1.58 1.64 1.70 1.70 1.64 1.46 1.61 1.62 1.65 1.69 1.74 1.85 1.90 1.86 1.84 1.78 1.66 1.55 1.45 1.48 1.53 1.66 1.73 1.70 1.71 1.61 1.59
0.41 0.43 0.33 0.34 0.28 0.28 0.34 0.32 0.42 0.56 0.65 0.76 0.82 0.90 0.98 1.04 1.05 1.12 1.20 1.26 1.34 1.40 1.50 1.61 1.69 1.72 1.74 1.57 1.51 1.56 1.60 1.67 1.76 1.82 1.85 1.84 1.88 1.87 1.82 1.67 1.57 1.57 1.57 1.62 1.74 1.76 1.74 1.65 1.60
0.40 0.37 0.37 0.36 0.34 0.30 0.30 0.40 0.61 0.58 0.67 0.70 0.77 0.91 1.00 1.07 1.12 1.16 1.18 1.25 1.34 1.40 1.44 1.49 1.57 1.65 1.77 1.74 1.57 1.47 1.54 1.64 1.75 1.80 1.85 1.88 1.88 1.83 1.73 1.59 1.56 1.57 1.54 1.60 1.66 1.72 1.76 1.71 1.67
0.47 0.44 0.43 0.37 0.39 0.40 0.34 0.39 0.73 0.71 0.76 0.77 0.80 0.87 0.98 1.08 1.15 1.20 1.18 1.25 1.34 1.37 1.44 1.49 1.54 1.58 1.73 1.74 1.68 1.54 1.50 1.56 1.66 1.73 1.80 1.87 1.77 1.73 1.71 1.61 1.64 1.64 1.59 1.64 1.61 1.66 1.67 1.67 1.58
Wind_Speed
3 3 3 2 3 3 6 6 5 5 4 4 3 1 1 1 2 2 3 6 12 11 11 10 10 10 9 9 10 11 11 11 10 10 10 9 9 8 8 7 6 6 5 4 3 2 1 0 1
2 2 2 1 2 5 5 5 5 4 4 4 3 2 0 1 1 2 5 8 13 11 11 11 10 10 10 9 9 11 11 10 10 9 9 9 8 8 6 6 5 5 4 4 2 2 1 1 2
2 1 1 1 2 3 5 5 3 3 3 2 2 1 1 1 1 4 5 11 12 11 11 12 11 11 10 10 9 9 10 11 10 9 8 9 8 7 6 5 5 4 4 3 3 2 2 2 2
1 1 0 2 2 3 4 4 3 3 1 2 1 1 0 2 1 2 7 11 11 11 11 12 12 13 10 8 10 6 8 13 11 9 6 6 6 6 6 4 4 4 3 2 2 1 1 1 2
1 0 1 2 4 4 5 4 3 3 2 2 1 1 1 0 1 4 8 10 11 11 10 12 12 13 10 9 9 6 7 12 11 9 6 6 5 5 5 4 4 4 3 2 2 1 1 1 3
1 0 1 4 3 2 4 5 4 4 2 2 2 1 1 1 3 5 7 10 10 10 11 11 12 12 12 12 9 7 7 14 11 10 6 5 5 4 5 5 4 4 3 2 2 1 1 2 3
2 2 4 4 2 1 3 6 5 4 4 4 1 2 1 2 2 4 7 10 10 10 10 11 11 11 11 9 9 9 11 11 10 10 7 5 5 3 5 6 5 5 3 3 2 1 2 3 4
2 1 3 3 3 3 3 7 6 7 5 4 4 3 2 4 3 4 7 9 10 10 10 11 11 10 10 8 7 9 12 12 11 9 8 6 4 4 6 6 5 5 4 3 2 1 3 4 5
2 2 4 4 3 4 3 7 8 7 8 7 6 5 3 4 5 5 7 9 10 11 11 10 11 10 10 9 7 7 9 12 11 10 10 7 5 5 7 7 6 5 4 2 2 1 3 4 6
2 2 4 4 4 5 4 4 6 7 8 7 8 5 4 5 7 7 8 9 11 11 11 11 11 11 10 9 7 8 8 9 11 10 9 7 6 7 7 7 7 6 4 3 3 3 3 4 5
1 3 5 5 5 5 5 3 4 7 9 9 10 8 7 7 8 8 8 9 11 11 11 10 11 11 10 9 8 8 9 10 10 9 9 8 7 9 9 8 7 6 5 3 2 3 4 4 5
1 2 6 6 6 4 5 4 4 7 8 8 8 9 9 9 9 9 9 9 10 11 11 11 11 11 10 8 8 8 9 10 11 11 10 9 10 10 10 9 8 6 5 3 2 2 3 5 5
1 6 7 7 6 5 5 6 6 6 6 6 6 8 9 9 9 10 10 9 10 10 11 11 11 11 10 8 8 9 9 10 11 12 12 10 12 11 11 10 8 7 5 4 3 3 3 4 5
6 7 6 5 6 5 6 6 5 4 5 5 7 8 9 9 10 11 11 10 10 10 11 11 11 11 10 9 9 9 8 9 10 12 13 12 14 13 11 10 8 7 5 5 4 2 3 3 4
6 5 4 5 6 5 8 6 5 4 4 5 6 8 9 8 10 11 11 11 10 9 10 11 11 11 10 9 9 8 7 8 8 12 15 15 15 14 12 10 8 7 5 5 4 2 2 3 3
3 2 4 7 5 6 6 8 5 4 6 6 7 8 9 9 9 10 11 11 10 9 10 10 10 11 11 10 9 8 8 7 9 13 15 15 16 15 13 11 9 7 6 5 4 3 2 3 4
3 4 6 6 6 8 6 10 7 5 5 7 8 8 11 11 10 10 11 10 9 9 8 9 10 10 10 10 10 8 7 7 11 14 15 15 17 15 14 11 9 8 7 6 4 3 2 2 4
3 6 7 8 9 8 10 10 10 5 6 7 8 8 12 13 12 11 11 10 9 8 8 8 9 10 10 10 10 8 7 7 10 13 16 16 17 16 14 11 10 9 8 6 5 3 2 2 3
3 4 7 8 7 10 9 11 11 6 4 6 7 8 11 14 12 11 12 11 10 8 8 8 8 9 10 11 11 10 8 9 11 13 15 16 16 16 14 11 10 10 8 6 6 4 2 2 2
3 5 5 5 7 6 9 10 11 9 2 3 6 8 9 14 13 12 12 11 10 9 8 8 8 8 10 11 11 10 9 10 12 14 16 15 15 15 14 12 10 10 8 6 6 3 3 3 2
4 4 4 7 8 2 9 7 11 11 7 2 2 5 7 13 13 12 11 11 10 9 8 7 7 8 9 11 11 10 10 10 13 15 15 15 15 15 14 13 11 10 9 7 6 4 3 3 3
5 1 3 5 6 5 7 7 14 11 10 5 2 2 6 11 13 11 10 10 10 9 8 7 7 8 10 11 11 12 12 12 14 15 15 14 14 15 14 14 12 10 9 8 7 5 4 4 4
4 4 4 4 5 4 6 3 13 10 13 10 3 2 4 7 10 11 10 9 9 9 8 7 7 8 9 11 11 12 13 13 14 15 15 15 14 15 15 15 13 10 10 8 8 6 5 4 4
6 7 8 6 5 3 5 4 12 11 12 10 8 2 3 6 8 8 8 8 8 8 8 8 8 8 9 11 12 13 15 14 15 15 16 15 14 15 16 15 14 12 10 9 9 8 6 6 5
9 7 4 5 4 3 2 1 7 10 10 10 8 5 2 3 7 8 8 8 8 8 9 8 9 9 9 11 12 13 15 15 15 15 16 16 15 15 16 16 14 12 12 11 10 9 8 7 7
5 6 4 4 2 2 1 3 3 9 9 9 9 7 4 2 4 7 8 9 9 9 10 9 10 10 10 11 12 13 14 15 15 16 16 17 16 16 15 16 15 13 13 12 11 10 10 9 9
6 5 1 2 3 3 1 3 4 7 9 8 9 8 8 4 3 6 8 10 10 10 10 11 11 11 11 12 13 14 15 15 15 16 16 17 17 16 16 16 16 14 13 13 12 11 10 9 9
5 2 4 4 3 4 2 4 1 6 7 8 7 8 7 7 5 5 7 9 10 11 12 12 12 13 12 12 14 15 16 17 16 17 19 18 17 17 17 17 16 15 14 14 13 12 11 10 10
6 8 7 6 7 8 7 1 3 4 6 7 8 8 8 8 8 7 7 8 9 10 12 13 13 13 14 13 14 16 17 18 18 18 20 19 19 18 18 18 18 18 16 15 14 14 13 12 12
8 9 9 10 6 7 9 8 5 4 5 7 8 9 9 9 9 9 9 9 10 11 11 13 13 15 15 15 15 15 17 19 19 20 21 20 20 20 19 19 18 18 18 16 16 15 14 14 13
Wind_Direction
118 110 118 135 158 153 129 118 115 112 124 118 133 137 49 14 294 226 195 189 175 174 174 175 173 170 165 159 160 161 158 156 153 153 152 150 148 150 148 150 154 155 156 153 151 156 160 324 353
113 111 134 123 203 161 141 144 116 99 117 129 126 128 86 78 11 205 178 180 172 175 177 177 178 175 169 163 165 167 171 169 164 160 159 157 153 155 154 153 159 166 169 173 186 197 239 294 322
106 111 174 237 203 140 161 154 140 123 126 159 145 26 338 344 351 175 183 170 173 177 178 182 181 177 171 171 171 174 184 181 176 172 170 162 167 166 161 159 165 174 178 192 214 231 260 285 308
95 143 149 304 156 145 156 161 158 165 163 158 177 82 100 316 198 194 170 173 175 179 184 183 183 180 177 185 176 188 193 187 183 178 177 166 181 174 173 171 177 179 183 194 202 219 253 280 316
79 120 66 72 120 151 176 181 178 184 193 164 224 78 13 340 180 168 172 179 182 185 187 186 187 188 192 174 180 182 183 190 187 186 184 182 178 184 181 181 177 178 176 181 183 190 279 299 303
156 247 47 54 105 166 206 200 218 229 228 206 236 177 36 95 162 176 184 188 188 188 188 189 192 197 203 201 202 216 213 193 192 193 191 183 174 181 195 185 171 164 161 158 147 93 325 321 316
59 56 58 60 59 185 211 214 231 239 226 217 243 229 310 181 182 184 191 189 190 191 193 193 194 197 205 202 229 224 201 194 192 191 200 190 176 183 182 170 165 162 155 152 147 45 27 359 344
67 80 63 42 25 19 243 231 243 241 224 227 245 267 247 215 203 192 189 190 191 195 197 196 196 197 199 208 208 206 203 195 202 200 193 177 186 174 169 168 163 161 156 148 135 64 5 6 8
74 54 39 19 348 355 305 253 238 249 235 237 247 272 271 204 201 193 190 190 194 197 197 198 198 201 199 203 206 208 190 199 201 201 203 202 194 179 175 172 165 161 152 134 125 71 39 31 30
30 28 23 354 333 327 335 282 250 236 231 241 248 252 229 215 199 198 195 197 195 197 200 201 201 200 197 203 213 197 201 193 196 197 201 203 191 186 174 170 168 165 158 141 110 78 42 34 34
44 22 351 339 328 314 332 318 250 246 248 250 244 235 219 210 205 204 201 197 196 195 200 199 199 197 196 206 211 211 204 202 207 204 206 203 202 188 181 174 169 166 167 156 117 78 57 46 35
267 342 336 325 330 307 304 304 280 263 266 264 246 225 220 218 215 210 203 194 192 196 197 198 197 197 203 209 214 210 212 218 217 215 214 214 197 188 182 175 171 168 163 154 123 85 56 41 46
274 335 334 337 330 310 303 296 289 278 268 247 233 220 216 219 214 205 199 195 195 196 201 200 199 200 205 213 216 216 228 228 223 218 213 201 191 182 176 174 174 171 169 159 132 94 57 55 52
317 322 324 348 345 326 317 309 300 296 251 241 222 214 213 214 209 200 199 197 197 197 199 200 204 207 211 223 222 225 232 224 230 217 205 200 186 182 178 176 176 173 180 186 170 91 70 70 57
310 319 336 357 348 337 337 300 298 285 247 229 222 213 209 208 201 200 200 199 199 200 201 205 206 212 219 225 226 225 230 229 225 201 191 185 185 184 180 178 178 176 170 161 167 144 100 77 61
296 283 354 352 350 0 337 338 332 289 246 229 219 212 205 198 194 197 197 198 197 201 204 210 215 220 223 226 223 225 228 228 204 189 187 188 188 185 182 180 179 175 169 162 151 135 113 80 83
212 336 348 349 335 338 335 331 348 301 261 236 222 217 208 201 200 196 196 196 198 201 206 212 218 222 225 223 217 219 221 217 201 194 193 191 186 184 183 182 180 179 175 170 164 145 124 98 102
309 328 336 341 344 336 321 318 332 298 266 249 225 221 206 201 202 200 196 198 201 204 210 217 222 226 222 215 211 212 205 185 179 183 184 181 183 184 184 184 184 184 181 179 174 153 132 116 128
299 316 327 341 352 345 358 353 358 336 267 249 225 216 205 202 202 202 203 205 205 206 211 217 221 222 216 211 205 203 198 192 186 182 179 178 181 184 186 187 186 188 185 186 184 189 179 147 139
280 304 338 355 360 355 4 3 17 15 339 245 220 210 211 200 203 202 203 206 207 208 213 216 220 217 213 208 203 201 198 194 187 182 178 182 184 186 190 190 192 191 190 194 187 185 191 184 189
264 298 339 344 346 65 350 53 26 33 38 48 195 213 207 201 198 200 205 209 209 210 213 214 214 211 206 200 198 198 196 190 189 187 185 188 190 192 196 195 196 194 199 199 199 196 187 177 164
264 332 306 329 343 11 17 51 33 33 49 48 100 195 200 195 197 199 201 204 209 213 214 214 212 207 205 201 201 200 196 192 190 191 192 192 196 199 201 200 199 200 203 206 207 209 194 182 176
258 264 296 306 314 324 31 350 33 37 34 42 54 103 162 177 188 194 198 199 210 212 215 213 211 208 207 205 206 204 202 198 196 196 199 202 204 205 205 203 203 204 207 207 209 207 204 204 209
268 272 270 251 266 230 16 337 38 24 20 34 46 88 145 169 188 194 200 207 214 215 218 214 214 212 210 209 210 207 203 201 200 204 204 206 209 208 206 206 208 213 214 213 217 216 214 216 217
243 248 236 215 202 33 33 330 40 26 25 29 36 54 148 179 199 206 209 212 217 221 222 219 218 217 214 211 211 208 206 207 206 206 207 209 212 208 208 209 213 218 219 219 221 219 225 226 222
206 240 226 193 201 98 133 27 49 36 30 33 43 46 58 188 212 218 223 225 234 232 227 229 223 221 220 216 213 210 208 210 213 213 213 214 213 211 210 212 217 220 220 222 222 226 228 227 225
162 201 339 239 189 254 54 95 150 34 28 27 30 31 30 14 264 239 237 238 240 237 234 229 227 226 225 222 220 217 215 217 219 218 216 214 215 213 215 217 219 223 222 222 222 226 225 226 225
235 226 217 212 256 280 168 276 326 355 4 8 6 3 360 356 345 292 258 246 242 239 237 233 232 229 227 227 226 224 222 223 224 222 218 217 216 216 219 218 220 224 224 223 223 224 226 230 227
211 227 237 276 279 292 285 255 296 330 337 344 351 339 335 329 325 309 281 258 248 243 238 235 235 232 232 233 231 228 227 227 227 224 219 220 219 221 222 223 226 227 223 223 225 230 231 233 230
251 264 264 266 266 265 282 283 273 293 313 322 328 329 323 315 315 308 290 262 254 247 244 238 237 237 236 234 233 232 230 228 229 225 222 224 224 224 225 226 227 225 224 227 231 233 232 233 230